Location: Kernascl�den
(48.0062°N, 3.3198°W)
Time: 22:43:26
(UTC+00:00)

Cosmos 1674 - Pass Details

Date: 21 January 2021
Orbit: 492 x 518 km, 82.5° (Epoch: 04 March)

Event Time Altitude Azimuth Distance (km) Brightness Sun altitude
Rises 17:27:20 0° 206° (SSW) 2,627 7.1 -5.4°
Reaches altitude 10° 17:29:32 10° 213° (SSW) 1,747 6.4 -5.8°
Maximum altitude 17:33:10 40° 284° (WNW) 776 4.1 -6.3°
Drops below altitude 10° 17:36:50 10° 356° (N) 1,762 5.2 -6.9°
Sets 17:39:05 0° 4° (N) 2,654 6.1 -7.3°
